FW7233 Weather Reports


Display with metric or nautical units.
time (UTC)temp
F
wind
direction
speed
MPH
gust
MPH
rain 1hr
in
rain 24hr
in
rain mn
in
humidity
%
barometer
mb
20260831212818 60 140 0.0 1.0 0.00 0.05 0.05 99 1014.4
20260831211818 60 144 0.0 0.0 0.00 0.05 0.05 99 1014.2
20260831203824 60 143 0.0 1.0 0.00 0.05 0.05 99 1014.5
20260831201821 60 127 0.0 2.0 0.00 0.05 0.05 99 1014.4
20260831200818 60 144 0.0 0.0 0.00 0.05 0.05 99 1014.7
20260831195819 60 147 0.0 0.0 0.00 0.05 0.05 99 1014.7
20260831194822 60 143 0.0 0.0 0.00 0.05 0.05 99 1014.5
20260831191818 61 143 0.0 0.0 0.00 0.05 0.05 99 1014.5
20260831185821 61 92 0.0 1.0 0.00 0.05 0.05 99 1014.4
20260831184824 61 143 0.0 0.0 0.00 0.05 0.05 99 1014.3
20260831182824 62 156 0.0 0.0 0.00 0.05 0.05 99 1014.2
20260831181818 62 148 0.0 0.0 0.00 0.05 0.05 99 1014.3
20260831180818 63 148 0.0 0.0 0.00 0.05 0.05 99 1014.1
20260831175822 63 140 0.0 0.0 0.00 0.05 0.05 98 1013.8
20260831173821 64 137 0.0 1.0 0.00 0.05 0.05 97 1013.7
20260831172820 64 139 0.0 0.0 0.00 0.05 0.05 97 1013.7
20260831170823 65 136 0.0 1.0 0.00 0.05 0.05 96 1013.7
20260831165820 66 135 0.0 1.0 0.00 0.05 0.05 95 1014.0
20260831164825 67 147 0.0 2.0 0.00 0.05 0.05 94 1014.0
20260831163823 67 147 0.0 2.0 0.00 0.05 0.05 93 1013.8
20260831162823 69 148 0.0 3.0 0.00 0.05 0.05 91 1013.6
20260831161809 71 232 1.0 3.0 0.00 0.05 0.05 87 1013.8
20260831160810 72 141 0.0 4.0 0.00 0.05 0.05 86 1013.7
20260831155811 72 184 2.0 4.0 0.00 0.05 0.05 85 1014.1
20260831154809 73 186 0.0 3.0 0.00 0.05 0.05 85 1014.2
20260831152810 72 226 1.0 4.0 0.00 0.05 0.05 87 1014.2
20260831151808 72 175 0.0 4.0 0.00 0.05 0.05 88 1014.1
20260831150811 72 267 0.0 3.0 0.00 0.05 0.05 87 1014.1
20260831144810 69 165 0.0 2.0 0.00 0.05 0.05 93 1014.1
20260831142816 68 162 2.0 3.0 0.00 0.05 0.05 95 1014.1
20260831140811 66 144 0.0 2.0 0.01 0.05 0.05 97 1014.0
20260831135809 66 161 0.0 2.0 0.02 0.03 0.05 97 1013.9
20260831134808 66 122 1.0 1.0 0.04 0.03 0.05 97 1014.1
20260831132810 67 144 0.0 0.0 0.05 0.03 0.05 96 1014.0
20260831131811 67 134 0.0 1.0 0.05 0.03 0.05 96 1013.8
20260831125809 66 156 0.0 3.0 0.03 0.00 0.03 95 1014.2
20260831124811 67 123 0.0 3.0 0.01 0.00 0.01 94 1014.2
20260831123811 67 222 2.0 4.0 0.00 0.00 0.00 93 1014.5
20260831122811 68 276 0.0 6.0 0.00 0.00 0.00 92 1014.6
20260831120813 71 173 4.0 10.0 0.00 0.00 0.00 87 1014.5
20260831115809 71 129 1.0 4.0 0.00 0.00 0.00 87 1014.3
20260831114809 72 146 0.0 7.0 0.00 0.00 0.00 85 1014.4
20260831113809 73 146 0.0 6.0 0.00 0.00 0.00 81 1014.3
20260831112821 73 141 0.0 7.0 0.00 0.00 0.00 80 1013.9
20260831110809 72 199 2.0 3.0 0.00 0.00 0.00 81 1014.0
20260831105809 72 139 0.0 1.0 0.00 0.00 0.00 84 1014.1
20260831104808 72 125 0.0 2.0 0.00 0.00 0.00 82 1013.9
20260831103810 73 167 1.0 2.0 0.00 0.00 0.00 82 1013.7
20260831102810 73 146 0.0 2.0 0.00 0.00 0.00 79 1013.8
20260831101814 74 142 0.0 4.0 0.00 0.00 0.00 77 1013.7
20260831100809 76 161 0.0 2.0 0.00 0.00 0.00 76 1013.8
20260831095808 76 172 1.0 3.0 0.00 0.00 0.00 73 1013.5
20260831094810 75 144 0.0 3.0 0.00 0.00 0.00 75 1013.7
20260831093811 76 208 1.0 3.0 0.00 0.00 0.00 73 1013.6
20260831092812 77 80 2.0 6.0 0.00 0.00 0.00 71 1013.8
20260831090809 74 152 0.0 2.0 0.00 0.00 0.00 79 1013.8
20260831085808 75 162 0.0 3.0 0.00 0.00 0.00 77 1013.9
20260831084807 75 217 0.0 2.0 0.00 0.00 0.00 77 1013.8
20260831083806 76 123 0.0 4.0 0.00 0.00 0.00 76 1013.9
20260831080818 74 191 2.0 4.0 0.00 0.00 0.00 78 1013.8
20260831074806 72 143 1.0 2.0 0.00 0.00 0.00 82 1013.9
20260831073807 71 152 1.0 2.0 0.00 0.00 0.00 81 1013.9
20260831071759 71 135 2.0 4.0 0.00 0.00 0.00 82 1013.9
20260831070756 72 157 1.0 3.0 0.00 0.00 0.00 80 1013.9
20260831065754 72 182 1.0 6.0 0.00 0.00 0.00 79 1014.2
20260831064754 71 137 1.0 3.0 0.00 0.00 0.00 82 1014.1
20260831063754 70 145 0.0 3.0 0.00 0.00 0.00 86 1014.0
20260831062756 66 142 0.0 2.0 0.00 0.00 0.00 93 1014.0
20260831055754 61 111 0.0 0.0 0.00 0.00 0.00 99 1014.4
20260831053807 59 142 0.0 0.0 0.00 0.00 0.00 99 1014.3
20260831052808 58 142 0.0 0.0 0.00 0.00 0.00 99 1014.1
20260831051807 58 138 0.0 0.0 0.00 0.00 0.00 99 1014.2
20260831050807 57 138 0.0 0.0 0.00 0.00 0.00 99 1014.5
20260831045754 57 139 0.0 0.0 0.00 0.00 0.00 99 1014.3
20260831044755 57 138 0.0 0.0 0.00 0.00 0.00 99 1014.6
20260831043747 56 141 0.0 0.0 0.00 0.00 0.00 99 1014.2
20260831041744 56 120 0.0 0.0 0.00 0.00 0.00 99 1014.5
20260831035743 55 134 0.0 0.0 0.00 0.00 0.00 99 1014.6
20260831034747 55 144 0.0 0.0 0.00 0.00 0.00 99 1014.3
20260831033744 55 139 0.0 0.0 0.00 0.00 0.00 99 1014.5
20260831032744 55 134 0.0 0.0 0.00 0.00 0.00 99 1014.2
20260831030745 55 131 0.0 0.0 0.00 0.00 0.00 99 1014.6
20260831025743 55 139 0.0 0.0 0.00 0.00 0.00 99 1014.5
20260831024744 56 139 0.0 0.0 0.00 0.00 0.00 99 1014.5
20260831023745 56 134 0.0 0.0 0.00 0.00 0.00 99 1014.4
20260831022746 56 130 0.0 0.0 0.00 0.00 0.00 99 1014.6
20260831020751 56 134 0.0 0.0 0.00 0.00 0.00 99 1014.8
20260831015744 56 134 0.0 0.0 0.00 0.00 0.00 99 1014.9
20260831014746 56 144 0.0 0.0 0.00 0.00 0.00 99 1015.0
20260831013744 56 138 0.0 0.0 0.00 0.00 0.00 99 1014.9
20260831012744 57 139 0.0 0.0 0.00 0.00 0.00 99 1014.5
20260831011745 57 137 0.0 0.0 0.00 0.00 0.00 99 1014.9
20260831010746 57 144 0.0 0.0 0.00 0.00 0.00 99 1014.9
20260831005743 57 144 0.0 0.0 0.00 0.00 0.00 99 1014.8
20260831004757 58 139 0.0 0.0 0.00 0.00 0.00 99 1015.1
20260831003743 58 144 0.0 0.0 0.00 0.00 0.00 99 1015.0
20260831002744 58 144 0.0 0.0 0.00 0.00 0.00 99 1015.1
20260831000742 58 137 0.0 0.0 0.00 0.00 0.00 99 1015.0
20260830235741 58 139 0.0 0.0 0.00 0.00 0.00 99 1014.9
20260830234743 58 149 0.0 1.0 0.00 0.00 0.00 99 1015.0
20260830233741 58 145 0.0 0.0 0.00 0.00 0.00 99 1015.0
20260830231742 59 138 0.0 0.0 0.00 0.00 0.00 99 1014.9
20260830230741 58 135 0.0 0.0 0.00 0.00 0.00 99 1015.1
20260830225741 59 143 0.0 0.0 0.00 0.00 0.00 99 1015.2
20260830224741 58 145 0.0 0.0 0.00 0.00 0.00 99 1015.0
20260830223741 58 142 0.0 0.0 0.00 0.00 0.00 99 1014.9
20260830222743 59 138 0.0 0.0 0.00 0.00 0.00 99 1015.0
20260830221740 59 140 0.0 0.0 0.00 0.00 0.00 99 1014.9
20260830215740 59 132 0.0 0.0 0.00 0.00 0.00 99 1014.9